Dewpoint
47 47 47 46 47 49 50 49 49 51 52 53 53 53 52 55 56 53 53 57 60 62 62 57 57 55 54 51 48 47 42 39 38 44 43 45 43 48 52 53 56 58 56 56 59
46 48 48 47 46 46 48 50 49 49 50 51 53 53 52 53 52 51 55 61 61 61 57 56 55 54 50 49 46 44 42 40 39 40 43 43 43 46 50 53 55 56 58 57 59
46 47 48 47 47 46 46 48 50 49 49 49 51 53 53 52 47 47 59 60 61 61 58 57 57 55 49 47 45 45 42 42 40 39 39 40 41 42 49 48 54 54 57 58 58
43 46 47 48 48 48 48 46 50 50 50 49 49 52 54 51 27 53 58 59 61 60 57 57 56 53 50 47 46 43 44 43 41 41 40 39 40 41 46 44 53 57 58 57 58
49 46 48 49 49 48 46 45 48 50 50 49 48 51 50 43 43 49 58 58 59 59 56 55 55 53 49 47 46 44 44 43 40 40 40 41 40 40 46 56 58 58 57 57 58
51 49 49 49 49 48 48 48 49 49 49 50 49 51 46 37 39 52 55 56 56 57 55 56 55 55 53 48 46 45 44 44 41 39 41 41 41 41 52 57 57 57 56 57 57
52 52 50 49 49 48 48 48 48 49 49 50 48 48 44 38 41 47 54 54 55 55 54 55 56 55 54 50 49 46 44 44 44 40 41 41 40 39 54 57 56 56 56 56 57
53 52 51 49 49 48 48 49 49 49 49 50 49 46 39 42 43 41 39 50 55 56 56 57 57 54 54 53 49 47 47 43 42 42 42 40 35 40 55 56 55 55 55 55 56
54 52 52 50 49 49 49 49 49 49 49 48 45 43 37 44 43 42 48 46 48 53 55 56 55 50 51 48 45 46 41 42 41 43 42 40 38 41 51 54 55 55 55 55 55
53 52 52 49 49 49 49 49 49 49 47 46 46 37 35 35 39 43 45 49 47 48 49 50 48 44 43 44 38 40 41 42 41 41 41 40 38 40 44 50 53 55 56 55 55
53 53 51 49 48 48 47 42 37 34 39 36 35 36 36 37 39 42 43 46 46 43 41 45 41 39 38 40 42 42 40 42 42 44 42 40 39 40 41 43 50 54 55 55 55
54 52 50 48 48 48 45 38 39 40 34 36 37 36 37 37 36 38 46 41 41 36 42 40 37 41 41 41 40 41 41 40 43 46 43 42 40 41 42 42 45 54 55 56 55
53 52 50 49 48 45 41 41 45 43 34 34 36 35 35 40 36 35 43 41 38 36 37 37 38 41 39 37 36 37 41 40 41 45 46 42 41 44 43 44 42 50 55 56 53
52 51 50 49 42 41 40 45 44 44 18 22 31 33 37 38 34 38 41 39 38 33 36 37 41 40 38 36 36 35 43 43 43 41 37 43 36 42 41 42 41 53 55 52 48
52 51 50 48 42 40 44 46 45 34 1 18 32 37 37 34 34 36 43 40 35 34 35 33 39 39 37 36 38 35 40 43 43 41 40 41 36 36 40 39 41 50 50 49 47
52 51 50 45 44 44 46 45 36 14 -3 19 30 32 32 32 33 35 38 41 38 35 35 36 42 38 37 39 39 39 40 43 42 39 33 39 37 36 39 41 42 47 46 46 44
52 50 47 44 40 45 45 35 14 3 16 15 25 29 30 30 28 34 34 34 30 22 23 34 36 41 40 37 40 37 33 30 29 30 31 39 37 38 37 36 44 46 42 40 38
50 46 44 42 43 44 36 22 -1 -1 19 26 28 29 26 29 26 32 30 32 32 31 26 26 26 36 41 37 35 35 32 31 26 27 30 38 33 36 39 45 46 43 38 36 36
48 43 41 39 43 40 29 8 8 12 19 26 24 23 17 25 28 28 32 33 33 32 24 23 26 39 41 42 38 37 33 37 32 30 30 33 35 35 39 41 39 37 35 35 34
42 38 37 41 41 35 23 19 19 32 32 32 20 24 17 19 23 23 26 32 36 37 36 34 26 35 37 41 42 38 39 32 32 26 24 31 32 33 35 38 36 35 34 33 34
39 32 37 40 35 28 15 22 29 32 34 30 28 25 23 23 27 23 20 30 36 35 37 35 33 30 36 34 35 37 35 35 34 32 26 27 29 26 34 38 37 34 34 33 34
34 22 37 36 24 29 25 27 27 28 35 34 33 29 28 24 25 26 26 28 37 37 34 36 34 30 32 35 37 37 36 35 29 30 29 26 25 26 28 37 38 33 33 35 36
34 30 36 34 15 13 27 26 26 25 30 30 31 34 31 27 24 28 28 34 37 38 34 37 32 26 28 30 34 34 35 36 33 31 27 25 25 30 35 36 35 32 35 36 38
31 20 25 31 32 28 25 25 25 27 28 30 30 34 31 26 31 25 29 35 35 37 39 39 33 29 22 27 30 31 33 34 33 28 28 28 23 28 33 34 33 33 36 37 38
29 18 22 14 21 28 27 26 25 25 27 28 26 30 29 20 26 28 29 31 35 38 37 36 28 32 33 32 31 30 31 32 32 30 26 27 26 26 33 34 34 35 37 36 36
27 23 28 19 28 27 27 19 25 21 25 25 26 29 30 25 27 24 28 31 31 33 35 36 30 31 28 28 29 28 32 32 32 33 33 32 31 34 30 36 36 37 37 36 37
30 31 29 25 23 21 21 21 23 25 25 28 29 29 28 29 31 30 30 31 32 31 32 32 25 19 14 25 24 16 26 31 32 33 32 30 30 30 29 36 37 37 37 37 37
Lifted_Index
15 15 15 15 16 16 15 15 15 15 14 14 14 14 14 13 12 11 8 5 4 3 3 3 3 3 3 3 3 3 2 2 2 1 0 -0 -0 -0 -0 -0 -0 -0 0 1 1
15 15 15 15 16 16 16 15 15 15 15 15 14 14 14 13 13 11 8 5 4 3 3 3 2 2 3 3 3 3 2 2 2 1 1 -0 -0 -0 -0 -0 -0 0 1 1 2
15 15 15 15 16 16 16 16 15 15 16 15 15 14 14 14 13 11 7 5 4 3 3 2 1 1 2 3 3 3 2 2 2 1 1 0 0 0 -0 -0 0 0 1 2 2
15 15 15 15 15 16 16 16 16 15 16 16 15 15 14 14 13 11 7 5 4 3 3 2 1 1 1 2 3 3 2 2 1 1 1 0 0 0 0 -0 0 0 1 2 2
15 15 15 15 15 16 16 16 16 15 16 16 16 15 15 16 15 11 8 5 4 3 2 1 1 0 1 1 2 2 2 1 1 1 1 0 1 1 0 -0 -0 0 1 2 2
14 15 15 15 15 16 16 16 16 16 16 16 16 16 16 17 16 12 8 5 3 2 2 1 1 0 0 1 2 2 2 1 1 1 1 1 1 1 0 -0 -0 0 1 2 2
14 14 14 15 15 15 16 16 16 16 16 16 16 16 17 17 15 12 8 5 3 2 1 1 1 1 1 1 1 1 1 1 1 1 0 1 1 0 -0 -1 -1 -0 1 2 1
13 13 14 14 15 15 15 16 16 16 16 16 16 16 16 15 13 10 7 4 2 1 1 1 1 2 1 1 1 1 1 1 1 0 0 0 1 0 -1 -1 -1 -0 1 1 1
12 13 14 14 15 15 15 15 15 15 15 15 15 15 14 12 9 6 4 2 1 1 1 1 2 3 2 1 1 1 1 1 1 0 0 0 1 0 -1 -1 -1 -1 0 1 1
12 12 13 14 14 15 15 15 15 15 15 15 14 13 11 8 5 3 1 1 1 1 1 2 2 3 3 2 1 1 1 1 1 1 0 0 1 1 -0 -1 -1 -1 -0 0 0
12 12 13 14 14 14 15 16 16 15 15 14 12 9 7 4 2 1 -0 -0 1 1 1 2 2 3 3 3 2 1 1 1 1 1 1 1 1 0 0 -0 -1 -1 -1 -1 -0
12 12 13 13 14 14 15 15 15 14 13 12 9 6 3 2 0 -0 -0 -0 1 1 1 1 2 2 3 4 3 2 1 1 1 1 1 1 1 0 0 -0 -1 -1 -1 -1 -1
12 12 13 13 13 14 14 14 13 12 11 9 6 3 2 0 -0 -0 -0 -0 1 1 1 1 2 2 3 4 3 2 2 1 1 1 1 1 1 1 0 -0 -0 -0 -1 -1 -1
12 12 12 12 13 14 13 12 11 9 8 6 4 2 0 -0 -0 -0 -0 0 1 2 2 1 2 2 3 3 3 2 2 1 1 1 1 1 1 1 0 0 0 0 -0 -1 -1
12 12 12 12 13 12 11 9 8 7 5 4 2 1 0 0 -0 -0 -0 0 1 2 2 2 2 2 2 2 3 3 2 2 1 1 1 1 1 1 1 1 1 1 1 0 -0
11 11 11 12 11 10 9 7 5 4 4 3 2 1 0 0 0 0 0 0 1 2 2 2 2 2 2 2 3 3 2 1 1 1 1 1 1 1 1 1 1 1 1 1 0
11 11 11 11 10 9 7 5 4 3 3 3 2 1 1 1 1 0 0 1 1 2 3 2 2 3 3 3 3 4 3 1 0 0 1 1 1 1 2 1 1 1 1 1 0
11 11 11 11 9 7 6 4 3 3 3 2 2 1 1 1 1 1 1 1 2 3 3 3 3 3 3 3 4 4 3 2 1 1 1 1 1 1 2 1 1 1 1 1 1
10 11 11 10 8 6 5 3 3 2 3 2 2 1 1 1 1 1 1 1 2 3 3 4 4 4 3 4 4 4 3 2 2 1 1 1 1 1 1 1 1 1 1 1 1
10 11 10 9 7 6 4 3 3 3 3 2 2 1 1 1 2 2 2 2 2 3 3 4 4 4 3 3 3 3 3 3 2 1 1 1 1 1 2 1 1 1 1 1 1
10 10 10 8 7 5 4 3 3 3 3 2 2 1 1 1 2 2 2 2 2 2 3 3 4 3 3 3 3 2 2 2 2 2 1 1 1 2 2 2 1 1 1 1 1
10 10 9 7 6 5 4 4 4 4 3 2 2 1 1 1 2 2 2 2 2 2 2 3 3 2 2 2 2 1 1 2 2 2 2 2 2 2 2 2 2 1 2 2 2
10 10 8 7 6 4 4 4 4 4 3 3 2 2 2 1 2 2 2 2 2 2 2 2 1 2 2 2 2 1 1 1 1 1 2 2 2 2 2 2 2 2 2 2 3
10 9 8 6 5 4 3 3 3 4 4 3 3 2 2 2 2 2 2 2 3 2 2 2 1 1 2 3 3 3 2 1 1 2 2 2 2 2 2 3 3 3 3 3 3
10 9 8 6 5 4 3 3 3 4 4 4 3 3 2 2 2 2 2 3 3 3 2 2 1 1 2 3 4 4 3 3 3 3 3 3 3 3 3 3 4 4 4 4 4
10 9 8 6 5 4 4 4 4 4 5 4 4 3 3 2 2 2 3 3 3 3 3 2 1 1 1 2 3 4 4 4 4 4 4 4 4 4 4 4 4 5 5 5 5
10 9 8 6 5 4 4 4 5 5 5 5 4 3 3 3 3 3 3 4 4 3 3 2 2 1 1 2 3 3 4 4 5 5 5 5 5 5 5 4 4 5 5 5 5